{"data":{"norad_id":66734,"intl_designator":"2025-276BW","name":"FLOCK 4H-31","alt_names":[],"object_type":"PAYLOAD","status":"ACTIVE","operator":null,"country":"US","launch_date":"2025-11-28","launch_site_code":"AFWTR","launch_vehicle":null,"mission":null,"orbit_class":"UNKNOWN","rcs_meters":null,"size_class":null,"mass_kg":null,"dimensions":null,"purposes":["earth_obs"],"wikipedia_slug":null,"has_3d_model":false,"image_url":null,"decayed_at":null,"tle_current":{"epoch":"2026-05-25T04:29:58.466400Z","epoch_age_seconds":58969,"freshness":"FRESH","line1":"1 66734U 25276BW  26145.18748225  .00005456  00000+0  26137-3 0  9994","line2":"2 66734  97.4172 218.9709 0005472  99.8727 260.3125 15.19328994 26923","mean_motion":15.19328994,"eccentricity":0.0005472,"inclination_deg":97.4172,"raan_deg":218.9709,"arg_perigee_deg":99.8727,"mean_anomaly_deg":260.3125,"bstar":0.00026137,"rev_number":2692,"period_min":94.778682279264,"perigee_km":504.09929842348,"apogee_km":511.63534155128,"semimajor_km":6886.0043199874,"source":"CELESTRAK","updated_at":"2026-05-25T13:38:13.373412Z"}}}